Houston, TX

4:45 PM CST on February 19, 2017 (GMT -0600)
Hobby

Weather History for KHOU - February, 2014

Change the Weather History Date:

Monday, February 10, 2014

  Actual Average Record
Temperature  
Mean Temperature 49 °F 55 °F  
Max Temperature 59 °F 65 °F 85 °F (1957)
Min Temperature 39 °F 46 °F 22 °F (1973)
Degree Days  
Heating Degree Days 16 10  
Month to date heating degree days 168 109  
Since 1 July heating degree days 1333 1033  
Growing Degree Days 2 (Base 50)    
Moisture  
Dew Point 50 °F    
Average Humidity 93    
Maximum Humidity 100    
Minimum Humidity 86    
Precipitation  
Precipitation 0.63 in 0.12 in 2.22 in (1985)
Month to date precipitation 1.15 1.09  
Year to date precipitation 2.11 4.47  
Sea Level Pressure  
Sea Level Pressure 30.07 in    
Wind  
Wind Speed 7 mph (NNE)    
Max Wind Speed 20 mph    
Max Gust Speed 23 mph    
Visibility 5 miles    
Events Fog , Rain    
T = Trace of Precipitation, MM = Missing Value Source: NWS Daily Summary

Daily Weather History Graph

Daily Weather History Graph

Search for Another Location

Airport or City:

Trip Planner

Search our weather history database for the weather conditions in past years. The results will help you decide how hot, cold, wet, or windy it might be!

Date:

Astronomy

Feb. 10, 2014 Rise Set
Actual Time 7:04 AM CST 6:06 PM CST
Civil Twilight 6:40 AM CST 6:30 PM CST
Nautical Twilight 6:11 AM CST 6:59 PM CST
Astronomical Twilight 5:44 AM CST 7:27 PM CST
Moon 2:43 PM CST (2/10) 3:51 AM CST (2/10)
Length of Visible Light 11h 50m
Length of Day
11h 01m
Waxing Gibbous, 85% of the Moon is Illuminated
Feb 10
Waxing Gibbous
Feb 14
Full
Feb 22
Last Quarter
Mar 1
New
Mar 8
First Quarter

Hourly Weather History & Observations

Time (CST) Temp. Windchill Dew Point Humidity Pressure Visibility Wind Dir Wind Speed Gust Speed Precip Events Conditions
12:53 AM 57.0 °F - 55.9 °F 96% 30.04 in 0.2 mi SE 6.9 mph - N/A Fog Fog
1:25 AM 57.2 °F - 57.2 °F 100% 30.02 in 0.1 mi Calm Calm - N/A Fog Fog
1:53 AM 57.0 °F - 57.0 °F 100% 30.02 in 0.1 mi Calm Calm - N/A Fog Fog
2:53 AM 57.0 °F - 57.0 °F 100% 30.02 in 0.1 mi Calm Calm - N/A Fog Fog
3:41 AM 57.2 °F - 57.2 °F 100% 30.01 in 0.1 mi Calm Calm - N/A Fog Fog
3:53 AM 57.0 °F - 55.9 °F 96% 30.02 in 0.1 mi NE 3.5 mph - N/A Fog Fog
4:53 AM 57.0 °F - 57.0 °F 100% 30.02 in 0.1 mi Calm Calm - N/A Fog Fog
5:53 AM 57.9 °F - 57.0 °F 97% 30.03 in 0.1 mi Calm Calm - N/A Fog Fog
6:53 AM 59.0 °F - 57.9 °F 96% 30.04 in 0.1 mi Calm Calm - N/A Fog Fog
7:23 AM 57.2 °F - 57.2 °F 100% 30.03 in 0.2 mi SSE 4.6 mph - N/A Fog Fog
7:53 AM 60.1 °F - 59.0 °F 96% 30.04 in 0.8 mi SSE 6.9 mph - N/A   Mostly Cloudy
7:59 AM 60.8 °F - 60.8 °F 100% 30.03 in 1.2 mi SSE 8.1 mph - N/A   Mostly Cloudy
8:21 AM 62.6 °F - 60.8 °F 94% 30.04 in 0.8 mi SSE 5.8 mph - N/A   Overcast
8:53 AM 63.0 °F - 63.0 °F 100% 30.06 in 3.0 mi SSE 4.6 mph - N/A   Overcast
9:42 AM 60.8 °F - 59.0 °F 94% 30.06 in 4.0 mi NNE 8.1 mph 17.3 mph 0.00 in Rain Light Rain
9:50 AM 60.8 °F - 59.0 °F 94% 30.06 in 2.5 mi North 6.9 mph 17.3 mph 0.01 in Rain Light Rain
9:53 AM 60.1 °F - 59.0 °F 96% 30.07 in 2.5 mi North 9.2 mph - 0.01 in Rain Light Rain
10:12 AM 60.8 °F - 59.0 °F 94% 30.06 in 4.0 mi North 8.1 mph - 0.00 in Rain Light Rain
10:53 AM 60.1 °F - 57.9 °F 93% 30.09 in 3.0 mi NNW 16.1 mph - 0.03 in Rain Light Rain
11:23 AM 57.2 °F - 53.6 °F 88% 30.08 in 10.0 mi North 13.8 mph - 0.03 in   Overcast
11:53 AM 55.9 °F - 54.0 °F 93% 30.09 in 10.0 mi North 16.1 mph - 0.03 in   Overcast
12:53 PM 53.1 °F - 50.0 °F 89% 30.07 in 10.0 mi North 15.0 mph - N/A   Overcast
1:53 PM 51.1 °F - 48.0 °F 89% 30.06 in 10.0 mi North 12.7 mph - 0.00 in   Overcast
2:53 PM 48.9 °F - 46.9 °F 93% 30.05 in 8.0 mi North 15.0 mph - 0.01 in   Overcast
3:53 PM 48.0 °F - 45.0 °F 89% 30.05 in 10.0 mi North 16.1 mph - 0.01 in   Overcast
4:53 PM 46.9 °F - 43.0 °F 86% 30.05 in 10.0 mi NNE 18.4 mph - N/A   Overcast
5:08 PM 46.4 °F 39.2 °F 42.8 °F 87% 30.04 in 2.0 mi NNE 18.4 mph 24.2 mph 0.03 in Rain Heavy Rain
5:41 PM 44.6 °F 38.1 °F 42.8 °F 93% 30.06 in 2.0 mi North 13.8 mph - 0.13 in Rain Light Rain
5:53 PM 45.0 °F 38.5 °F 43.0 °F 93% 30.09 in 4.0 mi North 13.8 mph - 0.14 in Rain Light Rain
6:11 PM 44.6 °F 38.4 °F 42.8 °F 93% 30.08 in 9.0 mi North 12.7 mph - 0.00 in   Overcast
6:53 PM 44.1 °F 37.1 °F 41.0 °F 89% 30.11 in 10.0 mi North 15.0 mph 25.3 mph 0.00 in   Overcast
7:38 PM 42.8 °F 35.8 °F 39.2 °F 87% 30.11 in 6.0 mi North 13.8 mph - 0.05 in Rain Rain
7:53 PM 43.0 °F 36.0 °F 39.9 °F 89% 30.12 in 10.0 mi North 13.8 mph - 0.06 in Rain Light Rain
8:38 PM 42.8 °F 35.1 °F 39.2 °F 87% 30.11 in 10.0 mi North 16.1 mph - 0.00 in Rain Light Rain
8:53 PM 42.1 °F 34.9 °F 39.0 °F 89% 30.12 in 4.0 mi NNE 13.8 mph - 0.04 in Rain Rain
9:43 PM 42.8 °F 36.2 °F 39.2 °F 87% 30.12 in 10.0 mi North 12.7 mph - 0.03 in   Overcast
9:53 PM 41.0 °F 33.1 °F 39.0 °F 93% 30.13 in 10.0 mi North 15.0 mph - 0.03 in   Overcast
10:53 PM 41.0 °F 33.1 °F 37.9 °F 89% 30.14 in 10.0 mi North 15.0 mph - N/A   Overcast
11:19 PM 41.0 °F 33.1 °F 37.4 °F 87% 30.13 in 6.0 mi North 15.0 mph - N/A   Overcast
11:53 PM 39.9 °F 31.8 °F 37.9 °F 93% 30.14 in 5.0 mi North 15.0 mph - N/A   Overcast